This is the latest recevied weather packets stored in our database for station/object KQ4UPF. If no packets are shown the sender has not sent any weather packets the latest 10 day(s).
| Time | Temp. | Humidity | Pressure | Rain* | Wind** | Luminosity | Snow |
|---|---|---|---|---|---|---|---|
| 1777410034 | 22.78° C | 75% | 1017.4 hPa | 0 mm | - | 78 W/m² | - |
| 1777409734 | 23.89° C | 73% | 1017.1 hPa | 0 mm | - | 154 W/m² | - |
| 1777409430 | 24.44° C | 74% | 1017.3 hPa | 0 mm | - | 332 W/m² | - |
| 1777409126 | 23.89° C | 72% | 1017.4 hPa | 0 mm | - | 431 W/m² | - |
| 1777408822 | 24.44° C | 73% | 1017.8 hPa | 0 mm | - | 544 W/m² | - |
| 1777408519 | 24.44° C | 75% | 1017.8 hPa | 0 mm | - | 596 W/m² | - |
| 1777408218 | 23.89° C | 72% | 1018 hPa | 0 mm | - | 870 W/m² | - |
| 1777407914 | 23.33° C | 75% | 1017.8 hPa | 0 mm | - | 752 W/m² | - |
| 1777407612 | 23.33° C | 73% | 1018 hPa | 0 mm | - | 305 W/m² | - |
| 1777407312 | 23.33° C | 73% | 1017.9 hPa | 0 mm | - | 299 W/m² | - |
| 1777407007 | 23.89° C | 74% | 1018 hPa | 0 mm | - | 364 W/m² | - |
| 1777406701 | 23.89° C | 72% | 1018.3 hPa | 0 mm | - | 428 W/m² | - |
| 1777406397 | 23.89° C | 74% | 1018.4 hPa | 0 mm | - | 495 W/m² | - |
| 1777406097 | 23.89° C | 74% | 1018.6 hPa | 0 mm | - | 862 W/m² | - |
| 1777405793 | 23.33° C | 78% | 1018.7 hPa | 0 mm | - | 688 W/m² | - |
| 1777405489 | 23.33° C | 74% | 1019 hPa | 0 mm | - | 413 W/m² | - |
| 1777405187 | 23.33° C | 77% | 1019 hPa | 0 mm | - | 888 W/m² | - |
| 1777404884 | 23.33° C | 73% | 1019.2 hPa | 0 mm | - | 428 W/m² | - |
| 1777404582 | 23.33° C | 77% | 1019.4 hPa | 0 mm | - | 376 W/m² | - |
| 1777404278 | 22.78° C | 74% | 1019.4 hPa | 0 mm | - | 464 W/m² | - |
| 1777403974 | 22.22° C | 77% | 1019.4 hPa | 0 mm | - | 619 W/m² | - |
| 1777403674 | 22.22° C | 80% | 1019.7 hPa | 0 mm | - | 302 W/m² | - |
| 1777403372 | 22.78° C | 75% | 1019.8 hPa | 0 mm | - | 353 W/m² | - |
| 1777403067 | 22.22° C | 79% | 1020 hPa | 0 mm | - | 259 W/m² | - |
| 1777402764 | 22.78° C | 79% | 1020 hPa | 0 mm | - | 274 W/m² | - |
* Rain latest hour (hover to see other rain measurements)
** Current wind speed in m/s (hover to see current wind gust speed)